Weather History for Sevilla, Spain

Change the Weather History Date:

Tuesday, August 12, 2014

  Actual Average Record
Temperature  
Mean Temperature 80 °F -  
Max Temperature 95 °F 89 °F 109 °F (2003)
Min Temperature 66 °F 64 °F 64 °F (1996)
Cooling Degree Days 16    
Growing Degree Days 30 (Base 50)    
Moisture  
Dew Point 58 °F    
Average Humidity 53    
Maximum Humidity 83    
Minimum Humidity 16    
Precipitation  
Precipitation 0.00 in - - ()
Sea Level Pressure  
Sea Level Pressure 29.96 in    
Wind  
Wind Speed 5 mph ()    
Max Wind Speed 16 mph    
Max Gust Speed -    
Visibility 19.0 miles    
Events      
Averages and records for this station are not official NWS values.
T = Trace of Precipitation, MM = Missing Value Source: Averaged Metar Reports

Daily Weather History Graph

Daily Weather History Graph

Search for Another Location

Airport:

Trip Planner

Search our weather history database for the weather conditions in past years. The results will help you decide how hot, cold, wet, or windy it might be!

Date:

Astronomy

Aug. 12, 2014 Rise Set
Actual Time 7:36 AM CEST 9:19 PM CEST
Civil Twilight 7:08 AM CEST 9:47 PM CEST
Nautical Twilight 6:34 AM CEST 10:21 PM CEST
Astronomical Twilight 5:58 AM CEST 10:57 PM CEST
Moon 10:22 PM CEST (8/12) 9:34 AM CEST (8/12)
Length of Visible Light 14h 38m
Length of Day
13h 42m
Waning Gibbous, 96% of the Moon is Illuminated
Aug 12
Waning Gibbous
Aug 17
Last Quarter
Aug 25
New
Sep 2
First Quarter
Sep 9
Full

Hourly Weather History & Observations

Time (CEST) Temp. Heat Index Dew Point Humidity Pressure Visibility Wind Dir Wind Speed Gust Speed Precip Events Conditions
12:00 AM 73.4 °F - 62.6 °F 69% 29.98 in - SSW 4.6 mph - N/A   Clear
12:30 AM 73.4 °F - 62.6 °F 69% 29.98 in - SW 6.9 mph - N/A   Clear
1:00 AM 73.4 °F - 62.6 °F 69% 29.98 in - SSW 6.9 mph - N/A   Clear
2:00 AM 73 °F - 65 °F 69% 29.99 in 19 mi SSW 4.6 mph - -  
3:30 AM 69.8 °F - 60.8 °F 73% 29.98 in - Variable 1.2 mph - N/A   Clear
4:00 AM 69.8 °F - 62.6 °F 78% 29.98 in - Variable 1.2 mph - N/A   Clear
4:30 AM 69.8 °F - 60.8 °F 73% 29.98 in - Variable 1.2 mph - N/A   Clear
5:00 AM 69 °F - 63 °F 76% 29.97 in 19 mi SSE 3.5 mph - -  
5:00 AM 68.0 °F - 60.8 °F 78% 29.98 in - SSE 3.5 mph - N/A   Clear
6:30 AM 68.0 °F - 60.8 °F 78% 29.98 in - Calm Calm - N/A   Clear
7:00 AM 66.2 °F - 60.8 °F 83% 29.98 in - SE 2.3 mph - N/A   Clear
7:30 AM 66.2 °F - 60.8 °F 83% 29.98 in - Variable 1.2 mph - N/A   Clear
8:00 AM 67 °F - 62 °F 79% 29.98 in 19 mi ESE 1.2 mph - -  
8:00 AM 66.2 °F - 60.8 °F 83% 29.98 in - ESE 1.2 mph - N/A   Clear
8:30 AM 68.0 °F - 62.6 °F 83% 29.98 in - SE 2.3 mph - N/A   Clear
9:00 AM 69.8 °F - 62.6 °F 78% 29.98 in - SE 3.5 mph - N/A   Clear
9:30 AM 71.6 °F - 62.6 °F 73% 29.98 in - Variable 1.2 mph - N/A   Clear
10:00 AM 73.4 °F - 62.6 °F 69% 29.98 in - South 3.5 mph - N/A   Clear
10:30 AM 75.2 °F - 62.6 °F 65% 29.98 in - Variable 1.2 mph - N/A   Clear
11:00 AM 78 °F - 63 °F 51% 30.01 in 19 mi SSW 2.3 mph - -  
11:00 AM 77.0 °F - 60.8 °F 57% 30.01 in - SSW 3.5 mph - N/A   Clear
11:30 AM 78.8 °F - 60.8 °F 54% 30.01 in - SSW 3.5 mph - N/A   Clear
12:00 PM 78.8 °F - 60.8 °F 54% 30.01 in - SSW 4.6 mph - N/A   Clear
12:30 PM 80.6 °F 81.5 °F 60.8 °F 51% 30.01 in - WSW 4.6 mph - N/A   Clear
1:30 PM 84.2 °F 83.5 °F 57.2 °F 40% 29.98 in - SSW 5.8 mph - N/A   Clear
2:00 PM 88 °F - 58 °F 26% 29.99 in 19 mi WSW 4.6 mph - -  
2:00 PM 86.0 °F 84.5 °F 55.4 °F 35% 29.98 in - West 5.8 mph - N/A   Clear
2:30 PM 87.8 °F 86.1 °F 55.4 °F 33% 29.98 in - SW 6.9 mph - N/A   Clear
3:00 PM 89.6 °F - 51.8 °F 27% 29.95 in - WSW 6.9 mph - N/A   Clear
3:30 PM 91.4 °F - 51.8 °F 26% 29.95 in - SW 5.8 mph - N/A   Clear
4:00 PM 93.2 °F - 51.8 °F 24% 29.92 in - SW 9.2 mph - N/A   Clear
4:30 PM 93.2 °F - 51.8 °F 24% 29.92 in - SW 11.5 mph - N/A   Clear
5:00 PM 95 °F - 54 °F 16% 29.92 in 19 mi SW 11.5 mph - -  
5:00 PM 93.2 °F - 51.8 °F 24% 29.92 in - SW 10.4 mph - N/A   Clear
5:30 PM 93.2 °F - 51.8 °F 24% 29.92 in - SW 12.7 mph - N/A   Clear
7:30 PM 89.6 °F - 50.0 °F 26% 29.89 in - SW 16.1 mph - N/A   Clear
8:00 PM 88 °F - 51 °F 19% 29.89 in 19 mi SSW 16.1 mph - -  
8:00 PM 87.8 °F - 50.0 °F 27% 29.89 in - SW 16.1 mph - N/A   Clear
8:30 PM 86.0 °F - 51.8 °F 31% 29.89 in - SSW 12.7 mph - N/A   Clear
9:30 PM 80.6 °F - 50.0 °F 34% 29.89 in - SSW 13.8 mph - N/A   Clear
10:00 PM 78.8 °F - 53.6 °F 42% 29.92 in - SSW 6.9 mph - N/A   Clear
11:00 PM 78 °F - 60 °F 43% 29.94 in 19 mi SSW 12.7 mph - -   Clear
11:00 PM 77.0 °F - 57.2 °F 50% 29.92 in - SSW 11.5 mph - N/A   Clear